Location: Potomac
(46.8816°N, 113.5795°W)
Time: 12:24:40
(UTC+00:00)

AO-91 - Pass Details

Date: 30 June 2022
Orbit: 450 x 797 km, 97.7° (Epoch: 12 August)

Event Time Altitude Azimuth Distance (km) Brightness Sun altitude
Rises 05:25:49 0° 30° (NNE) 2,536 ? -13.9°
Reaches altitude 10° 05:28:36 10° 54° (NE) 1,616 ? -14.1°
Maximum altitude 05:30:40 15° 91° (E) 1,320 ? -14.3°
Enters shadow 05:30:58 15° 98° (E) 1,324 ? -14.3°
